カタログに戻る

STARLINK-1555

運用中通信VLEO
NORAD 46032·PAYLOAD·🇺🇸 United States

打ち上げ Aug 7, 2020 から Cape Canaveral Space Force Station

Loading…

次のパス (今後24時間)

TLE

最新Source: CelesTrak SupGP

元期: Sep 14, 2026, 13:02 UTC

1 46032C 20055F   26257.54354167  .00014346  00000+0  46135-3 0  2570
2 46032  53.1584 328.5496 0001304  76.1972 168.1647 15.31692398    11

AllMySatでSTARLINK-1555をリアルタイム追跡

Download on the App Store